Theta_e
320 322 321 324 324 325 324 324 324 325 324 324 323 321 313 306 300 298 299 299 299 299 299 300 300 300 301 303 303 302 303 305 304 303 305 305 306 307 308 308 307 309 309 308 307 306 306
310 317 319 322 322 322 322 324 322 324 325 325 322 321 316 308 301 298 298 299 299 299 299 300 300 300 302 304 302 304 305 305 305 305 306 306 306 306 306 307 307 307 306 306 306 306 306
308 309 316 316 319 317 320 320 319 322 322 322 323 321 319 309 300 298 298 298 298 298 299 300 300 301 302 305 305 305 304 302 302 303 305 305 306 306 305 307 306 306 307 308 308 306 307
308 307 308 310 316 317 319 318 316 319 318 321 321 322 322 310 300 297 298 298 298 298 299 300 301 301 305 304 304 303 302 303 302 302 303 304 305 306 306 306 307 308 308 309 307 307 307
308 307 307 307 309 311 315 317 314 318 316 317 319 320 320 318 300 297 297 297 298 299 300 300 301 301 306 303 303 301 302 303 303 304 303 303 305 306 306 308 309 310 309 308 308 307 307
306 307 306 306 306 307 308 310 314 318 316 316 318 317 319 319 298 296 296 297 299 300 301 301 301 304 304 305 303 303 302 302 304 305 304 304 305 308 308 308 308 308 307 308 307 308 307
304 305 308 303 304 305 306 306 307 312 314 315 318 317 317 318 297 296 296 298 302 303 302 305 303 305 304 303 302 303 302 304 304 305 307 305 307 308 308 307 306 306 306 306 307 308 307
300 302 304 304 302 303 304 304 305 306 312 318 319 316 315 317 299 299 298 300 301 300 303 300 300 303 303 302 304 303 302 305 306 308 306 308 309 307 305 305 305 305 306 307 307 307 307
302 301 303 305 306 303 303 304 305 305 309 317 318 315 314 311 297 296 298 299 299 298 303 301 301 303 304 302 304 303 303 305 307 307 307 308 308 305 306 307 307 307 307 307 307 307 307
303 304 304 303 304 304 304 304 304 305 311 313 315 314 315 303 297 297 298 299 298 300 305 305 304 304 303 303 304 302 303 306 307 308 307 309 307 307 307 307 307 307 308 307 307 308 308
303 304 304 304 304 305 305 304 305 305 308 312 312 311 314 313 309 299 300 298 300 300 307 304 304 303 303 304 305 304 304 306 309 309 308 310 308 308 308 308 307 308 307 307 307 309 309
303 303 303 304 304 304 305 306 306 307 309 312 312 310 310 305 303 301 301 303 300 304 305 302 302 303 305 305 305 305 306 306 306 308 308 309 307 307 308 307 307 307 308 308 309 309 310
303 303 303 304 304 306 307 308 308 308 311 312 311 312 308 311 304 302 303 299 304 306 302 302 303 304 305 306 306 307 308 310 312 312 312 310 309 307 306 309 308 308 309 310 310 313 311
303 303 304 305 308 310 311 311 309 309 312 310 310 310 300 304 303 300 301 303 304 305 303 303 304 305 306 306 306 307 308 311 310 310 311 312 313 309 308 309 310 310 310 309 309 309 311
303 302 304 308 317 317 316 315 312 310 308 304 311 298 303 300 300 301 301 304 307 304 304 305 305 306 306 305 307 308 309 311 310 310 312 312 312 309 308 309 309 312 310 309 310 311 313
302 302 306 312 312 313 316 314 310 308 308 307 303 299 299 300 300 301 305 306 303 303 305 305 307 306 307 306 308 309 310 309 310 309 309 310 312 311 311 310 310 310 311 313 313 314 314
302 302 307 313 311 313 313 310 307 307 304 307 301 299 299 299 299 303 308 305 304 304 304 305 305 306 306 307 308 308 309 308 309 309 308 310 311 312 311 312 312 314 313 311 312 313 315
301 303 304 305 309 311 309 307 309 305 305 302 300 300 299 300 304 304 305 303 304 304 304 305 305 306 307 306 308 308 309 309 308 307 310 309 312 313 312 311 312 312 313 312 314 315 314
300 301 303 301 301 301 304 307 303 299 303 302 298 298 299 301 305 305 303 305 305 304 305 305 305 305 305 308 310 309 306 306 305 307 309 311 312 313 311 312 309 309 312 314 315 315 317
298 299 301 301 301 299 299 298 298 299 300 303 299 301 298 300 302 303 304 305 304 303 304 304 305 304 304 303 302 304 305 305 305 306 306 309 310 310 311 308 306 307 308 311 313 319 314
297 297 298 299 299 299 299 299 299 299 298 300 299 301 300 303 303 304 305 304 304 303 303 303 304 304 304 303 304 304 304 305 305 306 308 310 311 308 308 308 306 306 306 308 309 309 311
298 297 297 297 297 298 298 298 298 299 299 299 299 301 302 303 302 305 304 305 304 302 303 303 304 304 304 302 303 303 304 307 310 309 310 309 311 312 312 309 307 305 305 307 305 303 302
297 298 297 297 296 296 297 298 299 300 299 299 299 301 302 303 304 305 305 304 303 302 302 303 304 304 303 303 302 302 302 303 306 307 309 310 309 312 315 309 309 308 304 305 303 303 304
297 297 297 297 297 297 297 299 300 300 300 299 300 301 303 304 304 304 303 302 303 303 303 302 302 302 302 300 302 303 303 304 305 306 306 308 308 309 313 312 313 305 303 302 302 301 300
296 296 296 297 297 297 297 298 300 300 300 300 300 301 302 306 304 303 303 303 303 302 303 302 300 300 299 302 308 308 309 309 308 308 308 307 308 312 313 312 307 305 303 304 305 301 299
297 296 296 296 297 297 298 299 299 300 299 300 300 300 302 304 304 302 303 302 303 303 303 301 300 299 301 302 307 307 308 308 309 308 307 306 307 310 310 312 311 305 301 300 302 305 297
297 296 296 295 295 296 296 298 299 300 300 300 300 300 302 302 300 301 302 301 301 301 302 301 301 302 300 304 308 308 308 308 309 307 307 307 307 310 310 310 305 300 299 300 307 304 296
297 296 296 293 294 295 296 298 300 300 300 300 300 300 301 301 300 300 299 300 300 300 301 300 301 302 303 305 306 307 308 308 308 305 306 306 308 309 308 309 309 298 300 304 300 297 296
297 297 296 293 296 294 296 299 300 300 300 300 300 300 300 301 299 298 298 298 298 298 300 299 302 302 302 304 305 306 307 307 307 308 304 306 305 306 304 304 298 297 298 299 298 297 295
Wind_Speed
31 32 35 34 34 29 30 27 26 26 24 23 22 21 19 17 16 17 16 15 15 15 15 14 14 13 7 3 2 2 4 6 5 4 3 3 3 3 4 4 8 12 9 8 10 16 19
34 37 32 34 34 38 32 31 32 28 28 27 26 24 22 18 18 17 16 15 15 13 15 14 14 11 5 7 5 3 4 5 4 4 4 3 2 2 5 5 6 5 12 17 18 18 23
36 36 39 38 35 37 35 37 34 33 30 28 29 28 25 21 18 19 15 16 14 13 14 14 12 7 2 2 5 6 2 3 2 2 1 2 1 3 2 6 4 9 17 16 11 2 9
34 36 35 37 41 34 33 40 33 38 34 35 31 31 28 24 19 18 16 15 12 13 13 11 8 3 2 6 5 6 1 4 6 3 1 2 2 4 5 4 8 10 10 5 7 9 7
24 29 32 34 35 39 42 38 40 39 36 37 33 33 30 27 19 18 17 12 11 10 9 7 4 2 3 9 6 2 3 3 2 3 3 3 2 4 4 6 9 7 9 12 10 5 13
27 29 29 32 34 36 37 42 41 42 39 41 39 33 30 30 18 17 15 10 8 8 6 4 4 3 7 8 5 1 3 2 2 4 4 2 3 6 6 7 9 14 17 16 16 6 15
26 28 30 32 34 34 34 33 39 46 48 48 45 36 34 28 20 18 13 7 4 4 9 6 4 2 6 5 4 0 3 1 2 3 3 2 6 7 9 8 11 14 16 21 17 13 16
29 31 34 36 37 37 36 35 33 41 43 52 49 36 36 31 26 19 15 10 7 4 5 10 9 7 7 6 3 3 3 3 4 4 3 5 6 3 3 5 8 12 16 20 17 5 15
31 32 34 37 40 39 36 36 39 37 44 55 51 38 36 28 23 23 20 16 10 5 6 5 8 8 6 4 2 6 3 2 4 3 3 6 2 3 7 7 9 13 15 18 22 19 17
27 32 37 43 48 49 46 43 43 36 46 53 52 52 41 33 25 23 20 15 8 5 5 9 9 7 8 5 5 5 4 2 4 3 2 6 1 5 7 8 7 13 7 11 13 15 12
30 38 43 46 51 52 52 49 49 45 47 58 55 55 48 38 28 30 20 16 10 9 5 10 8 11 6 5 8 7 3 4 5 3 4 5 4 6 8 5 3 5 6 10 11 14 16
30 39 48 52 53 55 58 61 54 50 50 62 61 56 46 38 25 27 21 18 11 4 9 8 9 11 10 6 6 4 5 3 1 4 7 11 4 6 10 5 7 8 9 12 11 8 6
32 41 53 57 56 62 65 60 53 49 56 66 66 56 48 37 26 29 25 24 4 6 7 9 9 10 9 8 8 4 7 6 3 4 4 3 7 4 10 10 3 4 6 3 3 5 6
31 45 58 59 59 52 43 38 44 50 68 70 66 51 47 33 32 34 35 6 9 13 8 7 10 13 7 6 4 5 8 6 2 1 1 2 6 11 10 6 6 3 6 5 5 5 11
27 45 59 50 33 27 27 29 41 68 74 62 53 46 37 32 38 37 26 7 9 8 11 15 14 10 5 5 4 5 6 5 5 4 1 1 5 5 9 10 5 2 6 2 8 10 6
21 38 52 34 24 27 29 32 60 76 69 61 50 38 35 36 36 33 12 15 10 5 11 15 6 5 9 10 8 9 9 5 8 4 1 3 5 5 2 3 12 12 7 4 5 4 5
14 31 25 12 12 16 31 54 76 73 65 52 47 16 29 34 33 27 11 16 5 13 10 5 6 7 6 6 6 6 6 7 5 5 3 2 4 2 6 4 6 5 9 8 5 6 4
13 16 17 29 22 32 59 74 70 66 61 51 22 5 40 38 15 16 11 8 9 14 6 4 6 7 6 6 5 4 5 4 7 2 2 2 2 4 8 6 4 8 11 12 5 4 4
9 6 9 20 34 41 61 66 64 63 55 36 11 17 34 27 7 12 8 11 8 13 10 7 5 3 4 4 3 2 4 4 4 2 0 4 3 4 1 5 4 5 5 11 10 8 7
4 2 6 18 22 31 45 56 55 38 34 35 12 6 11 11 4 15 14 14 8 9 5 6 8 5 7 3 2 5 4 3 3 5 4 5 2 1 2 2 7 10 15 14 10 3 5
2 5 10 14 21 29 33 35 37 31 30 24 7 7 15 11 9 11 11 16 17 8 5 8 3 5 6 5 4 3 3 4 5 5 5 3 4 7 12 9 12 10 12 10 4 4 2
5 5 10 17 25 29 31 41 35 32 20 11 8 11 11 26 20 17 10 16 21 9 8 8 11 11 6 6 3 6 6 5 4 5 3 3 3 5 8 7 5 11 13 8 13 14 13
7 11 14 17 21 27 43 32 25 16 7 3 18 20 15 13 17 15 11 19 16 12 5 8 16 10 7 6 3 0 4 3 1 0 3 2 1 3 4 4 5 2 7 8 11 10 4
15 16 17 20 23 30 34 26 20 10 5 10 21 13 13 10 15 11 16 17 17 7 11 12 10 6 5 3 2 4 5 6 7 6 4 1 1 3 2 6 4 6 7 10 12 9 9
16 15 15 15 19 23 28 24 15 9 3 14 12 7 7 12 14 14 19 18 17 15 14 12 4 5 4 3 4 5 4 5 6 5 5 3 1 3 3 1 6 7 5 3 2 4 4
20 15 13 14 18 24 27 25 18 9 7 7 8 12 15 14 7 24 17 21 13 9 7 4 6 5 3 2 3 6 5 4 5 6 5 4 2 4 4 4 6 6 4 2 3 4 3
21 17 13 16 19 24 23 19 16 10 8 6 10 17 11 14 9 18 10 11 9 6 5 6 6 4 2 4 4 4 4 1 5 5 4 3 2 4 3 2 4 3 3 5 5 4 6
24 17 12 16 22 19 19 18 15 11 9 8 12 15 13 11 8 8 10 8 8 9 7 9 6 2 3 5 4 3 3 2 3 2 2 2 2 3 2 3 4 2 5 4 9 12 11
23 18 13 19 22 18 19 17 15 14 13 11 14 15 25 13 13 19 16 11 8 7 11 7 2 6 3 3 2 3 3 3 4 4 2 3 3 2 4 4 5 7 11 13 11 14 12
Wind_Direction
257 257 261 263 268 264 267 266 273 271 267 271 278 283 284 284 287 287 291 299 305 309 312 314 318 328 325 263 206 251 25 32 33 15 17 3 348 328 301 273 279 251 280 292 285 287 285
255 252 258 260 255 266 271 258 267 273 265 265 271 273 275 275 279 278 287 292 298 303 304 308 312 321 310 262 183 133 77 62 41 34 22 27 20 331 276 271 280 352 291 290 288 284 284
257 254 249 251 253 255 264 265 270 264 266 269 270 269 268 265 264 271 276 287 294 296 298 303 306 313 264 235 154 139 101 75 15 6 343 30 41 262 275 277 312 288 287 291 290 32 306
257 256 254 250 248 252 252 259 264 258 266 262 265 265 265 262 258 262 267 278 282 289 292 293 297 287 213 173 152 143 87 316 313 313 210 239 237 278 263 295 266 282 272 281 150 304 309
274 263 255 253 250 248 252 245 262 266 259 259 262 263 259 252 251 256 264 267 275 283 283 281 267 190 193 157 137 191 290 306 1 77 113 150 206 277 246 272 279 179 293 313 309 247 307
272 273 259 254 254 250 251 253 250 255 262 265 256 262 260 255 240 247 256 257 264 267 255 269 222 187 177 175 166 318 306 341 147 139 121 165 231 255 234 264 296 314 304 299 296 320 284
270 273 271 263 258 257 255 257 254 250 257 258 253 258 252 258 224 232 237 212 248 252 220 224 161 221 140 171 154 244 157 35 134 181 242 240 256 256 312 303 294 290 287 289 291 305 300
277 273 272 273 267 260 260 261 261 255 248 256 247 249 254 254 216 220 216 206 217 193 247 226 205 193 169 153 161 164 168 268 243 253 196 210 254 4 291 277 268 270 279 283 291 260 302
283 277 276 274 273 271 272 269 272 256 238 243 239 249 250 222 202 207 211 220 241 237 279 205 194 180 177 176 168 161 203 227 253 217 217 271 50 268 282 280 267 269 276 288 294 312 284
286 274 276 277 279 278 277 274 268 253 234 233 232 248 240 199 195 200 206 220 217 230 261 172 190 194 163 160 175 185 176 238 215 248 255 270 168 276 284 283 277 284 304 291 296 314 313
281 285 289 287 283 279 276 273 266 258 227 226 229 237 227 233 215 194 201 184 179 178 228 126 148 150 168 192 132 175 233 192 238 204 225 83 254 273 275 282 268 295 292 292 295 293 302
289 295 296 292 285 282 280 276 266 255 218 220 220 216 207 197 193 189 184 167 155 142 231 162 149 180 177 159 162 161 183 176 214 237 238 265 259 268 238 282 260 281 296 275 270 280 262
294 300 300 295 290 284 275 266 250 233 210 212 209 210 200 213 183 181 172 135 159 198 171 172 162 187 188 160 150 193 173 171 206 227 186 262 206 222 230 258 188 224 283 296 246 202 276
299 303 303 298 292 277 260 235 220 202 201 195 198 192 185 192 181 162 156 127 219 205 173 126 154 166 181 154 151 161 164 162 113 38 334 341 191 206 178 264 315 274 292 294 290 313 316
305 314 306 308 280 258 231 213 193 186 181 173 188 173 178 165 172 168 147 178 237 163 142 152 156 165 152 167 187 172 186 143 129 178 113 213 237 193 219 262 250 109 239 327 275 258 267
315 325 310 296 280 247 222 207 178 177 179 176 164 152 166 169 159 158 183 185 234 123 134 160 143 201 174 167 173 189 174 148 153 146 124 124 273 262 109 276 232 235 296 227 213 278 297
309 339 329 272 276 208 196 175 168 169 170 174 149 127 157 158 157 176 211 204 148 145 143 150 154 146 161 144 175 159 148 154 180 156 231 211 234 182 289 216 297 226 224 229 265 265 283
323 328 18 78 147 165 163 163 169 168 173 155 132 111 158 158 161 192 205 175 136 147 148 136 124 114 151 152 152 131 156 145 155 149 179 153 241 284 297 338 332 262 247 232 245 215 252
334 326 31 93 102 126 149 165 161 157 168 144 94 105 161 163 176 182 174 149 153 158 165 162 135 113 123 140 125 169 173 131 168 211 15 159 180 299 75 162 55 312 282 266 287 292 251
309 35 183 138 129 123 131 140 139 145 144 150 121 128 158 202 231 180 159 157 129 158 127 105 110 110 129 99 26 159 180 147 142 216 209 193 100 290 24 348 310 312 313 267 249 253 116
48 85 148 156 164 163 165 157 142 124 125 120 101 147 166 182 173 183 175 161 154 152 143 137 116 165 146 127 125 142 177 166 164 175 201 185 157 139 138 107 51 10 15 28 76 29 2
123 139 128 151 159 154 165 165 146 130 115 100 127 148 175 155 159 168 159 175 167 135 155 159 151 151 151 128 123 170 168 186 167 156 153 155 150 205 188 199 98 31 21 59 84 91 98
172 132 135 137 146 150 158 141 142 124 101 107 131 145 134 157 171 165 172 163 162 139 68 142 143 138 142 124 116 10 239 235 152 124 115 124 319 213 159 176 188 160 9 51 72 49 135
150 127 127 127 132 146 160 157 150 121 53 124 136 140 143 157 171 168 158 154 150 141 133 132 141 138 122 117 69 93 188 213 219 205 206 151 258 259 156 185 196 118 116 87 78 60 79
142 136 136 148 146 153 160 175 161 172 110 136 139 129 139 153 149 147 147 139 127 120 123 129 104 106 131 133 169 156 146 162 174 172 177 211 306 262 248 112 110 162 175 207 317 79 42
155 157 158 167 163 159 166 176 191 198 128 123 121 130 132 131 157 148 138 145 140 134 129 111 108 125 118 167 200 200 185 161 165 153 160 185 209 245 197 222 212 97 148 202 289 155 36
166 167 170 172 168 161 165 177 184 181 141 132 128 139 131 107 122 153 140 144 141 146 133 144 145 134 130 177 188 190 162 14 178 185 176 206 210 242 194 231 116 75 185 176 241 102 110
159 167 169 168 158 153 164 168 169 161 145 155 129 139 125 106 89 106 125 127 135 160 162 145 133 161 146 185 200 143 164 134 171 77 176 222 219 197 204 209 195 48 166 246 118 125 120
164 162 158 158 172 168 169 160 154 149 143 139 125 123 128 108 113 105 107 114 128 152 137 156 96 131 141 151 179 126 149 194 162 177 141 180 344 12 353 38 91 70 100 120 129 129 125